EW6527 Weather Reports


time (UTC)temp
C
wind
direction
speed
KPH
gust
KPH
rain 1hr
cm
rain 24hr
cm
rain mn
cm
humidity
%
barometer
mb
20200606180931 21 126 0.0 3.2 0.00 0.03 0.00 64 1005.7
20200606175929 21 125 0.0 1.6 0.00 0.03 0.00 63 1005.7
20200606174925 21 121 0.0 3.2 0.00 0.05 0.00 63 1005.7
20200606173924 21 121 0.0 1.6 0.00 0.08 0.00 62 1005.7
20200606172922 21 121 0.0 1.6 0.00 0.13 0.00 61 1005.5
20200606171921 21 121 0.0 3.2 0.00 0.18 0.00 63 1005.7
20200606170923 21 121 0.0 1.6 0.00 0.23 0.00 61 1005.7
20200606170419 22 121 0.0 3.2 0.00 0.36 0.00 60 1005.8
20200606164918 22 121 0.0 1.6 0.00 0.46 0.00 58 1005.7
20200606163917 22 121 0.0 3.2 0.00 0.51 0.00 59 1005.5
20200606162914 22 121 1.6 3.2 0.00 0.58 0.00 56 1005.5
20200606161910 23 121 1.6 6.4 0.00 0.58 0.00 54 1005.5
20200606160909 23 141 1.6 6.4 0.00 0.66 0.00 54 1005.4
20200606155904 23 111 1.6 8.0 0.00 0.69 0.00 55 1005.4
20200606154904 23 129 1.6 6.4 0.00 0.69 0.00 53 1005.4
20200606153903 23 130 1.6 6.4 0.00 0.71 0.00 53 1005.4
20200606152904 23 106 0.0 3.2 0.00 0.76 0.00 54 1005.4
20200606151901 23 132 0.0 3.2 0.00 0.84 0.00 54 1005.5
20200606150856 23 132 1.6 3.2 0.00 0.89 0.00 53 1005.7
20200606145854 23 154 1.6 6.4 0.00 0.99 0.00 55 1005.7
20200606144854 23 147 1.6 6.4 0.00 1.02 0.00 54 1005.7
20200606143854 24 120 1.6 6.4 0.00 1.02 0.00 52 1005.7
20200606142853 24 120 0.0 6.4 0.00 1.04 0.00 52 1005.7
20200606141852 25 240 0.0 1.6 0.00 1.04 0.00 51 1005.8
20200606140852 24 247 0.0 1.6 0.00 1.07 0.00 56 1005.8
20200606135850 23 250 0.0 1.6 0.00 1.07 0.00 54 1005.8
20200606134852 23 250 0.0 1.6 0.00 1.07 0.00 53 1005.9
20200606133851 23 282 0.0 3.2 0.00 1.07 0.00 53 1006.0
20200606132850 23 282 0.0 3.2 0.00 1.07 0.00 53 1006.0
20200606131851 23 236 0.0 6.4 0.00 1.07 0.00 54 1005.9
20200606130851 23 242 1.6 9.7 0.00 1.07 0.00 52 1005.9
20200606125849 23 233 1.6 6.4 0.00 1.07 0.00 51 1006.0
20200606124846 23 228 1.6 9.7 0.00 1.07 0.00 48 1006.1
20200606123852 24 262 1.6 8.0 0.00 1.07 0.00 53 1006.2
20200606122849 24 223 1.6 9.7 0.00 1.07 0.00 49 1006.2
20200606121842 24 227 1.6 11.3 0.00 1.07 0.00 48 1006.2
20200606120840 25 236 3.2 11.3 0.00 1.07 0.00 46 1006.2
20200606115842 25 309 3.2 9.7 0.00 1.07 0.00 47 1006.3
20200606114842 26 298 3.2 11.3 0.00 1.07 0.00 46 1006.4
20200606113836 26 278 3.2 9.7 0.00 1.07 0.00 48 1006.5
20200606112836 25 297 0.0 6.4 0.00 1.07 0.00 52 1006.5
20200606111833 25 316 1.6 11.3 0.00 1.07 0.00 51 1006.5
20200606110834 25 294 3.2 9.7 0.00 1.07 0.00 46 1006.6
20200606105834 25 294 1.6 9.7 0.00 1.07 0.00 50 1006.5
20200606104833 25 296 1.6 11.3 0.00 1.07 0.00 52 1006.5
20200606103835 25 296 1.6 6.4 0.00 1.07 0.00 54 1006.5
20200606102831 25 296 0.0 6.4 0.00 1.07 0.00 53 1006.5
20200606101832 24 296 3.2 9.7 0.00 1.07 0.00 54 1006.4
20200606100830 24 296 1.6 8.0 0.00 1.07 0.00 54 1006.2
20200606095831 23 296 1.6 8.0 0.00 1.07 0.00 61 1006.3
20200606094830 23 296 1.6 9.7 0.00 1.07 0.00 55 1006.4
20200606093830 23 296 1.6 8.0 0.00 1.07 0.00 53 1006.2
20200606092827 22 296 3.2 11.3 0.00 1.07 0.00 55 1006.3
20200606091827 22 297 1.6 9.7 0.00 1.07 0.00 59 1006.3
20200606090828 22 297 1.6 8.0 0.00 1.07 0.00 61 1006.3
20200606085826 21 297 1.6 9.7 0.00 1.07 0.00 61 1006.3
20200606084823 21 297 1.6 9.7 0.00 1.07 0.00 61 1006.3
20200606083819 21 297 1.6 8.0 0.00 1.07 0.00 65 1006.2
20200606082815 20 297 3.2 8.0 0.00 1.07 0.00 65 1006.2
20200606081811 20 298 1.6 9.7 0.00 1.07 0.00 65 1006.1
20200606080811 19 297 1.6 8.0 0.00 1.07 0.00 70 1006.0
20200606075811 18 297 3.2 11.3 0.00 1.07 0.00 70 1006.0
20200606074813 18 298 3.2 11.3 0.00 1.07 0.00 74 1006.0
20200606073810 18 298 3.2 9.7 0.00 1.07 0.00 74 1006.0
20200606072809 17 298 1.6 9.7 0.00 1.07 0.00 78 1006.1
20200606071810 17 297 3.2 9.7 0.00 1.07 0.00 79 1005.9
20200606070805 17 298 1.6 8.0 0.00 1.07 0.00 83 1005.9
20200606065805 16 298 3.2 9.7 0.00 1.07 0.00 85 1005.9
20200606064803 16 298 3.2 9.7 0.00 1.07 0.00 86 1005.5
20200606063757 16 298 1.6 8.0 0.00 1.07 0.00 91 1005.8
20200606062759 15 298 1.6 9.7 0.00 1.07 0.00 94 1005.9
20200606061759 15 298 1.6 6.4 0.00 1.07 0.00 94 1005.8
20200606060750 15 298 1.6 8.0 0.00 1.07 0.00 94 1005.9
20200606055751 14 298 0.0 6.4 0.00 1.07 0.00 94 1005.7
20200606054751 14 298 0.0 3.2 0.00 1.07 0.00 94 1005.3
20200606053750 13 298 0.0 3.2 0.00 1.07 0.00 94 1005.2
20200606052751 13 298 0.0 1.6 0.00 1.07 0.00 94 1005.3
20200606051751 13 298 0.0 3.2 0.00 1.07 0.00 94 1005.3
20200606050745 13 298 0.0 3.2 0.00 1.07 0.00 94 1005.2
20200606045746 13 298 0.0 1.6 0.00 1.07 0.00 94 1005.1
20200606044741 12 298 0.0 1.6 0.00 1.07 0.00 94 1005.2
20200606043735 12 298 0.0 1.6 0.00 1.07 0.00 94 1005.1
20200606042733 12 298 0.0 1.6 0.00 1.07 0.00 94 1005.1
20200606041732 12 298 0.0 1.6 0.00 1.07 0.00 94 1005.1
20200606040733 11 298 0.0 1.6 0.00 1.07 0.00 94 1004.9
20200606035732 11 298 0.0 1.6 0.00 1.07 0.00 94 1004.9
20200606034733 11 298 0.0 1.6 0.00 1.07 0.00 94 1004.7
20200606033732 10 298 0.0 0.0 0.00 1.07 0.00 94 1004.6
20200606032734 10 298 0.0 1.6 0.00 1.07 0.00 94 1004.4
20200606031732 10 298 0.0 0.0 0.00 1.07 0.00 94 1004.3
20200606030732 10 298 0.0 0.0 0.00 1.07 0.00 94 1004.1
20200606025731 10 298 0.0 1.6 0.00 1.07 0.00 94 1003.9
20200606024730 10 298 0.0 0.0 0.00 1.07 0.00 94 1003.7
20200606023729 10 298 0.0 0.0 0.00 1.07 0.00 94 1003.6
20200606022730 10 298 0.0 0.0 0.00 1.07 0.00 94 1003.5
20200606021729 10 298 0.0 0.0 0.00 1.07 0.00 94 1003.4
20200606020730 10 298 0.0 1.6 0.00 1.07 0.00 94 1003.3
20200606015729 10 298 0.0 0.0 0.00 1.07 0.00 94 1003.3
20200606014727 10 298 0.0 0.0 0.00 1.07 0.00 94 1003.4
20200606013726 10 298 0.0 0.0 0.00 1.07 0.00 94 1003.4
20200606012724 10 298 0.0 1.6 0.00 1.07 0.00 94 1003.3
20200606011724 10 298 0.0 0.0 0.00 1.07 0.00 94 1003.2
20200606010724 11 298 0.0 0.0 0.00 1.07 0.00 94 1003.2
20200606005725 11 298 0.0 0.0 0.00 1.07 0.00 94 1003.0
20200606004722 11 298 0.0 0.0 0.00 1.07 0.00 94 1003.1
20200606003723 11 298 0.0 0.0 0.00 1.07 0.00 94 1003.0
20200606002723 11 298 0.0 0.0 0.00 1.07 0.00 94 1002.9
20200606001723 11 298 0.0 0.0 0.00 1.07 0.00 94 1002.7
20200606000722 11 298 0.0 0.0 0.00 1.07 0.00 94 1002.6
20200605235722 11 298 0.0 1.6 0.00 1.07 0.00 94 1002.6
20200605234722 11 298 0.0 1.6 0.00 1.07 0.00 94 1002.5
20200605233721 11 298 0.0 1.6 0.00 1.07 0.00 94 1002.3
20200605232721 11 298 0.0 1.6 0.00 1.07 0.00 94 1002.1
20200605231721 11 298 0.0 1.6 0.00 1.07 0.00 94 1002.1
20200605230720 11 298 0.0 1.6 0.00 1.07 0.00 94 1002.0
20200605225720 11 298 0.0 0.0 0.00 1.07 0.00 94 1001.8
20200605224720 11 298 0.0 0.0 0.00 1.07 0.00 94 1001.7
20200605223720 11 298 0.0 1.6 0.00 1.07 0.00 94 1001.6
20200605222720 12 298 0.0 0.0 0.00 1.07 0.00 94 1001.6
20200605221718 12 298 0.0 0.0 0.00 1.07 0.00 94 1001.6
20200605220716 12 298 0.0 0.0 0.00 1.07 0.00 94 1001.5
20200605215714 12 298 0.0 1.6 0.00 1.07 1.07 94 1001.5
20200605214714 12 298 0.0 1.6 0.00 1.07 1.07 94 1001.4
20200605213713 12 298 0.0 1.6 0.00 1.07 1.07 94 1001.3
20200605212714 12 298 0.0 1.6 0.00 1.07 1.07 93 1001.4
20200605211713 12 298 0.0 1.6 0.00 1.07 1.07 94 1001.3
20200605210714 12 298 0.0 1.6 0.00 1.07 1.07 94 1001.1
20200605205713 12 298 0.0 0.0 0.00 1.09 1.07 94 1001.1
20200605204713 12 298 0.0 1.6 0.00 1.09 1.07 94 1000.9
20200605203713 13 298 0.0 1.6 0.00 1.09 1.07 94 1000.8
20200605202714 13 298 0.0 0.0 0.00 1.09 1.07 93 1000.8
20200605201710 13 298 0.0 1.6 0.00 1.09 1.07 93 1000.8
20200605200711 13 298 0.0 1.6 0.00 1.09 1.07 94 1000.8
20200605195711 13 298 0.0 1.6 0.03 1.09 1.07 94 1000.8
20200605194703 13 298 0.0 0.0 0.03 1.09 1.07 93 1000.6
20200605193704 13 298 0.0 1.6 0.03 1.09 1.07 93 1000.7
20200605193206 13 298 0.0 1.6 0.03 1.09 1.07 93 1000.7
20200605192704 13 298 0.0 1.6 0.03 1.09 1.07 93 1000.7
20200605191703 13 298 0.0 1.6 0.03 1.09 1.07 93 1000.6
20200605190701 13 298 0.0 1.6 0.03 1.09 1.07 93 1000.6
20200605185701 13 298 0.0 1.6 0.03 1.07 1.04 93 1000.5
20200605184703 13 298 0.0 1.6 0.03 1.07 1.04 93 1000.3
20200605183700 13 298 0.0 1.6 0.05 1.07 1.04 93 1000.1
20200605182704 13 298 0.0 1.6 0.10 1.07 1.04 93 1000.0
20200605181706 13 298 0.0 1.6 0.18 1.07 1.04 93 999.8